Regional Weather Roundup
Issued by NWS

Home | Current Version | Previous Version | Graphics & Text | Print | Product List | Glossary On
Versions: 1 2 3 4 5 6 7 8 9 10 11 12 13 14 15 16 17 18 19 20 21 22 23 24 25 26 27 28 29 30 31 32 33 34 35 36 37 38 39 40 41 42 43 44 45 46 47 48 49 50
311
ASUS43 KBIS 270910
RWRND

NORTH DAKOTA REGIONAL WEATHER ROUNDUP
NATIONAL WEATHER SERVICE BISMARCK ND
400 AM CDT SAT AUG 27 2016

NOTE: "FAIR" INDICATES FEW OR NO CLOUDS BELOW 12,000 FEET WITH NO
SIGNIFICANT WEATHER AND/OR OBSTRUCTIONS TO VISIBILITY.


NDZ001>003-009>011-017-271000-
NORTHWEST NORTH DAKOTA

CITY           SKY/WX    TMP DP  RH WIND       PRES   REMARKS
WILLISTON      CLOUDY    46  42  86 CALM      29.92F
MINOT          PTCLDY    60  55  83 SW9       29.90F
MINOT AFB      CLOUDY    56  53  88 SW5       29.90S
$$

NDZ018>021-031>035-040>046-271000-
SOUTHWEST NORTH DAKOTA

CITY           SKY/WX    TMP DP  RH WIND       PRES   REMARKS
BISMARCK       CLOUDY    54  52  93 CALM      29.97F
DICKINSON      CLOUDY    48  44  86 S10       29.94R
GARRISON         N/A     58  56  93 SW7       29.91F
HETTINGER ARPT PTCLDY    48  46  93 CALM      29.98F FOG
$$

NDZ004>008-012>016-024-026-027-054-271000-
NORTHEAST NORTH DAKOTA

CITY           SKY/WX    TMP DP  RH WIND       PRES   REMARKS
GRAND FORKS    CLOUDY    58  53  84 S7        29.99S
GRND FRKS AFB  CLOUDY    56  53  89 S7        29.97F
DEVILS LAKE    CLEAR     58  51  78 S13       29.95F
$$

NDZ022-023-025-028>030-036>039-047>053-271000-
SOUTHEAST NORTH DAKOTA

CITY           SKY/WX    TMP DP  RH WIND       PRES   REMARKS
FARGO          CLOUDY    63  57  81 S7        29.99F
JAMESTOWN      PTCLDY    56  54  93 S3        29.96F
$$





USA.gov is the U.S. government's official web portal to all federal, state and local government web resources and services.